Regional Weather Roundup
Issued by NWS

Home | Current Version | Previous Version | Graphics & Text | Print | Product List | Glossary On
Versions: 1 2 3 4 5 6 7 8 9 10 11 12 13 14 15 16 17 18 19 20 21 22 23 24 25 26 27 28 29 30 31 32 33 34 35 36 37 38 39 40 41 42 43 44 45 46 47 48 49 50
000
ASUS43 KFSD 282010
RWRSD

WEATHER ROUNDUP FOR SOUTH DAKOTA
NATIONAL WEATHER SERVICE SIOUX FALLS SD
300 PM CDT TUE JUL 28 2015

NOTE: "FAIR" INDICATES FEW OR NO CLOUDS BELOW 12,000 FEET WITH NO
SIGNIFICANT WEATHER AND/OR OBSTRUCTIONS TO VISIBILITY.


SDZ001>005-009-010-012>017-282100-
NORTHWEST AND NORTH CENTRAL SOUTH DAKOTA

CITY           SKY/WX    TMP DP  RH WIND       PRES   REMARKS
BUFFALO          N/A     68  43  40 W45G59    29.92R
FAITH            N/A     76  40  27 W29G45    29.94R
MOBRIDGE       MOSUNNY   77  51  40 W26G40    29.83S
$$

SDZ012>016-024>037-041>051-057-063-072>074-282100-
SOUTHWEST AND SOUTH CENTRAL SOUTH DAKOTA

CITY           SKY/WX    TMP DP  RH WIND       PRES   REMARKS
RAPID CTY ARPT MOSUNNY   76  42  29 NW16      30.03R
PIERRE         SUNNY     82  45  27 W23G38    29.92R
CUSTER         SUNNY     66  37  34 W14G28    30.14R
ELLSWORTH AFB  MOSUNNY   76  42  29 W16G23    30.02R
PHILIP         SUNNY     80  44  27 W16G33    29.97S
PINE RIDGE     SUNNY     77  40  26 W17G24    30.07S
SPEARFISH      FAIR      72  41  33 W25G39    30.07R
WINNER         FAIR      80  47  31 W22G30    29.99R
$$

SDZ004>011-016>023-039-040-282100-
NORTHEAST SOUTH DAKOTA

CITY           SKY/WX    TMP DP  RH WIND       PRES   REMARKS
ABERDEEN       SUNNY     79  52  38 W26G35    29.83R
WATERTOWN      SUNNY     76  57  51 W21G26    29.87S
BROOKINGS      SUNNY     75  59  57 W23       29.90R
SISSETON         N/A     77  56  48 W24G35    29.79R
$$

SDZ017-020-022-023-036>040-048>070-282100-
SOUTHEAST SOUTH DAKOTA

CITY           SKY/WX    TMP DP  RH WIND       PRES   REMARKS
SIOUX FALLS    MOSUNNY   79  62  56 NW16G24   29.89R
HURON          SUNNY     78  55  44 W18G28    29.89R
CHAMBERLAIN    SUNNY     78  51  38 NW20G25   29.95S
MITCHELL       SUNNY     79  56  45 NW16      29.92S
YANKTON        SUNNY     79  57  47 MISG      29.91
$$

ABBREVIATIONS USED IN REMARKS
   TC - TEMPERATURE IN CELSIUS
  WCI - WIND CHILL INDEX
   HX - HEAT INDEX
  VSB - VISIBILITY




USA.gov is the U.S. government's official web portal to all federal, state and local government web resources and services.